When you browse on this site, cookies collect data to enhance your experience and personalize the content and advertising you see.
Visit our Privacy Policy to learn more. By continuing to use the site, you agree to this use of cookies and data.
  • In Portugal
  • List of Countries
  • For 7 days
  • Water Temperature
  • Satellite Maps
  • Weather Map
  • Weather Widgets
  • user-avatar
    Login

    Hourly Weather Nashavar

    Today, 21 May, Tuesday

    Time Temperature Precipitation Wind Pressure Humidity
    00:00 +31°C° 0 mm 1 mps 729 mmHg 29%
    01:00 +31°C° 0 mm 1 mps 729 mmHg 29%
    02:00 +30°C° 0 mm 1 mps 729 mmHg 29%
    03:00 +30°C° 0 mm 1 mps 728 mmHg 29%
    04:00 +29°C° 0 mm 1 mps 728 mmHg 29%
    05:00 +29°C° 0 mm 1 mps 728 mmHg 29%
    06:00 +30°C° 0 mm 2 mps 728 mmHg 26%
    07:00 +31°C° 0 mm 2 mps 728 mmHg 23%
    08:00 +34°C° 0 mm 2 mps 728 mmHg 20%
    09:00 +35°C° 0 mm 2 mps 728 mmHg 18%
    10:00 +35°C° 0 mm 1 mps 728 mmHg 16%
    11:00 +37°C° 0 mm 1 mps 728 mmHg 15%
    12:00 +39°C° 0 mm 1 mps 728 mmHg 15%
    13:00 +39°C° 0 mm 1 mps 728 mmHg 14%
    14:00 +40°C° 0 mm 1 mps 727 mmHg 14%
    15:00 +40°C° 0.1 mm 2 mps 727 mmHg 14%
    16:00 +40°C° 0.1 mm 2 mps 727 mmHg 14%
    17:00 +40°C° 0 mm 1 mps 727 mmHg 15%
    18:00 +39°C° 0 mm 1 mps 727 mmHg 18%
    19:00 +37°C° 0 mm 1 mps 727 mmHg 21%
    20:00 +36°C° 0 mm 1 mps 727 mmHg 24%
    21:00 +35°C° 0 mm 1 mps 728 mmHg 25%
    22:00 +35°C° 0 mm 1 mps 728 mmHg 26%
    23:00 +34°C° 0 mm 1 mps 728 mmHg 27%

    Tomorrow, 22 May, Wednesday

    Time Temperature Precipitation Wind Pressure Humidity
    00:00 +35°C° 0.1 mm 2 mps 728 mmHg 29%
    01:00 +34°C° 0.1 mm 2 mps 727 mmHg 30%
    02:00 +32°C° 0.1 mm 2 mps 727 mmHg 32%
    03:00 +31°C° 0.2 mm 2 mps 727 mmHg 33%
    04:00 +31°C° 0.2 mm 2 mps 727 mmHg 34%
    05:00 +30°C° 0.2 mm 3 mps 727 mmHg 35%
    06:00 +31°C° 0.1 mm 3 mps 727 mmHg 32%
    07:00 +33°C° 0.1 mm 3 mps 727 mmHg 28%
    08:00 +34°C° 0.1 mm 3 mps 727 mmHg 25%
    09:00 +35°C° 0.1 mm 3 mps 727 mmHg 23%
    10:00 +36°C° 0.1 mm 3 mps 727 mmHg 21%
    11:00 +37°C° 0.1 mm 2 mps 727 mmHg 18%
    12:00 +38°C° 0.1 mm 2 mps 726 mmHg 18%
    13:00 +39°C° 0.1 mm 1 mps 726 mmHg 17%
    14:00 +40°C° 0.1 mm 1 mps 726 mmHg 17%
    15:00 +40°C° 0 mm 1 mps 725 mmHg 17%
    16:00 +39°C° 0 mm 2 mps 725 mmHg 18%
    17:00 +39°C° 0 mm 2 mps 725 mmHg 18%
    18:00 +37°C° 0.1 mm 3 mps 725 mmHg 25%
    19:00 +35°C° 0.1 mm 5 mps 725 mmHg 31%
    20:00 +33°C° 0.1 mm 6 mps 725 mmHg 37%
    21:00 +33°C° 0.2 mm 6 mps 726 mmHg 39%
    22:00 +32°C° 0.2 mm 6 mps 726 mmHg 41%
    23:00 +30°C° 0.2 mm 7 mps 726 mmHg 42%

    Day after tomorrow, 23 May, Thursday

    Time Temperature Precipitation Wind Pressure Humidity
    00:00 +30°C° 0 mm 6 mps 726 mmHg 42%
    01:00 +30°C° 0 mm 5 mps 726 mmHg 43%
    02:00 +30°C° 0 mm 4 mps 726 mmHg 43%
    03:00 +30°C° 0 mm 4 mps 726 mmHg 44%
    04:00 +29°C° 0 mm 3 mps 726 mmHg 45%
    05:00 +29°C° 0 mm 3 mps 726 mmHg 45%
    06:00 +29°C° 0 mm 3 mps 726 mmHg 43%
    07:00 +30°C° 0 mm 3 mps 726 mmHg 40%
    08:00 +32°C° 0 mm 4 mps 726 mmHg 37%
    09:00 +32°C° 0.2 mm 4 mps 726 mmHg 35%
    10:00 +33°C° 0.2 mm 4 mps 726 mmHg 34%
    11:00 +33°C° 0.2 mm 4 mps 726 mmHg 32%
    12:00 +33°C° 0.3 mm 4 mps 726 mmHg 33%
    13:00 +33°C° 0.3 mm 3 mps 727 mmHg 35%
    14:00 +33°C° 0.3 mm 3 mps 727 mmHg 36%
    15:00 +31°C° 0.2 mm 3 mps 726 mmHg 37%
    16:00 +31°C° 0.2 mm 2 mps 726 mmHg 39%
    17:00 +31°C° 0.2 mm 2 mps 726 mmHg 40%
    18:00 +30°C° 0.2 mm 3 mps 726 mmHg 44%
    19:00 +29°C° 0.2 mm 3 mps 726 mmHg 47%
    20:00 +28°C° 0.2 mm 4 mps 726 mmHg 50%
    21:00 +28°C° 0 mm 3 mps 727 mmHg 52%
    22:00 +27°C° 0 mm 3 mps 727 mmHg 53%
    23:00 +27°C° 0 mm 3 mps 727 mmHg 55%

    24 May, Friday

    Time Temperature Precipitation Wind Pressure Humidity
    00:00 +27°C° 0.1 mm 3 mps 727 mmHg 55%
    01:00 +26°C° 0.1 mm 3 mps 727 mmHg 56%
    02:00 +26°C° 0.1 mm 3 mps 727 mmHg 57%
    03:00 +26°C° 0.1 mm 2 mps 726 mmHg 57%
    04:00 +26°C° 0.1 mm 2 mps 726 mmHg 56%
    05:00 +26°C° 0.1 mm 2 mps 726 mmHg 56%
    06:00 +27°C° 0.1 mm 2 mps 726 mmHg 52%
    07:00 +28°C° 0.1 mm 2 mps 727 mmHg 48%
    08:00 +29°C° 0.1 mm 2 mps 727 mmHg 44%
    09:00 +30°C° 0 mm 2 mps 727 mmHg 41%
    10:00 +31°C° 0 mm 2 mps 727 mmHg 38%
    11:00 +32°C° 0 mm 2 mps 727 mmHg 35%
    12:00 +34°C° 0 mm 2 mps 727 mmHg 33%
    13:00 +35°C° 0 mm 2 mps 726 mmHg 31%
    14:00 +35°C° 0 mm 1 mps 726 mmHg 29%
    15:00 +35°C° 0 mm 1 mps 726 mmHg 28%
    16:00 +36°C° 0 mm 2 mps 725 mmHg 27%
    17:00 +36°C° 0 mm 2 mps 725 mmHg 26%
    18:00 +35°C° 0.1 mm 1 mps 725 mmHg 29%
    19:00 +34°C° 0.1 mm 1 mps 725 mmHg 31%
    20:00 +33°C° 0.1 mm 1 mps 726 mmHg 33%
    21:00 +32°C° 0.3 mm 1 mps 726 mmHg 35%
    22:00 +32°C° 0.3 mm 1 mps 726 mmHg 36%
    23:00 +31°C° 0.3 mm 1 mps 727 mmHg 38%

    25 May, Saturday

    Time Temperature Precipitation Wind Pressure Humidity
    00:00 +31°C° 0.1 mm 1 mps 726 mmHg 39%
    01:00 +30°C° 0.1 mm 1 mps 726 mmHg 39%
    02:00 +30°C° 0.1 mm 2 mps 726 mmHg 40%
    03:00 +29°C° 0 mm 2 mps 726 mmHg 41%
    04:00 +29°C° 0 mm 2 mps 726 mmHg 41%
    05:00 +28°C° 0 mm 2 mps 726 mmHg 42%
    06:00 +29°C° 0 mm 3 mps 726 mmHg 37%
    07:00 +31°C° 0 mm 3 mps 726 mmHg 32%
    08:00 +33°C° 0 mm 3 mps 726 mmHg 27%
    09:00 +34°C° 0 mm 3 mps 726 mmHg 24%
    10:00 +35°C° 0 mm 3 mps 726 mmHg 20%
    11:00 +37°C° 0 mm 3 mps 726 mmHg 17%
    12:00 +37°C° 0 mm 3 mps 725 mmHg 16%
    13:00 +38°C° 0 mm 2 mps 725 mmHg 14%
    14:00 +39°C° 0 mm 2 mps 724 mmHg 13%
    15:00 +39°C° 0 mm 1 mps 724 mmHg 13%
    16:00 +39°C° 0 mm 1 mps 724 mmHg 13%
    17:00 +39°C° 0 mm 1 mps 724 mmHg 14%
    18:00 +37°C° 0.1 mm 1 mps 724 mmHg 17%
    19:00 +36°C° 0.1 mm 1 mps 724 mmHg 20%
    20:00 +33°C° 0.1 mm 0 mps 724 mmHg 24%
    21:00 +32°C° 0.1 mm 0 mps 725 mmHg 25%
    22:00 +32°C° 0.1 mm 0 mps 725 mmHg 26%
    23:00 +31°C° 0.1 mm 0 mps 725 mmHg 27%

    26 May, Sunday

    Time Temperature Precipitation Wind Pressure Humidity
    00:00 +32°C° 0.2 mm 1 mps 725 mmHg 28%
    01:00 +32°C° 0.2 mm 1 mps 725 mmHg 29%
    02:00 +31°C° 0.2 mm 2 mps 725 mmHg 30%
    03:00 +30°C° 0.1 mm 2 mps 725 mmHg 29%
    04:00 +30°C° 0.1 mm 2 mps 725 mmHg 28%
    05:00 +29°C° 0.1 mm 2 mps 725 mmHg 27%
    06:00 +30°C° 0.1 mm 3 mps 725 mmHg 24%
    07:00 +32°C° 0.1 mm 4 mps 725 mmHg 20%
    08:00 +33°C° 0.1 mm 4 mps 726 mmHg 17%
    09:00 +35°C° 0 mm 4 mps 726 mmHg 16%
    10:00 +36°C° 0 mm 4 mps 726 mmHg 14%
    11:00 +37°C° 0 mm 4 mps 726 mmHg 13%
    12:00 +38°C° 0 mm 3 mps 725 mmHg 13%
    13:00 +39°C° 0 mm 3 mps 725 mmHg 12%
    14:00 +39°C° 0 mm 2 mps 725 mmHg 12%
    15:00 +39°C° 0 mm 2 mps 725 mmHg 12%
    16:00 +40°C° 0 mm 2 mps 724 mmHg 12%
    17:00 +40°C° 0 mm 2 mps 724 mmHg 12%
    18:00 +38°C° 0.1 mm 2 mps 725 mmHg 14%
    19:00 +37°C° 0.1 mm 3 mps 725 mmHg 16%
    20:00 +36°C° 0.1 mm 3 mps 726 mmHg 18%
    21:00 +35°C° 0 mm 3 mps 726 mmHg 16%
    22:00 +35°C° 0 mm 4 mps 726 mmHg 15%
    23:00 +34°C° 0 mm 4 mps 727 mmHg 14%
    Show more